This is the latest recevied weather packets stored in our database for station/object DB7GV-8. If no packets are shown the sender has not sent any weather packets the latest 1 day(s).
| Time | Temp. | Humidity | Pressure | Rain* | Wind** | Luminosity | Snow |
|---|---|---|---|---|---|---|---|
| 1778049027 | 10.56° C | 89% | 1008.5 hPa | - | - | - | - |
| 1778047216 | 10° C | 89% | 1008.5 hPa | - | - | - | - |
| 1778046311 | 9.44° C | 90% | 1008.7 hPa | - | - | - | - |
| 1778044500 | 8.89° C | 90% | 1008.8 hPa | - | - | - | - |
| 1778043595 | 8.33° C | 91% | 1008.9 hPa | - | - | - | - |
| 1778040878 | 8.33° C | 91% | 1009 hPa | - | - | - | - |
| 1778039973 | 8.33° C | 91% | 1009.2 hPa | - | - | - | - |
| 1778039067 | 8.33° C | 91% | 1009.3 hPa | - | - | - | - |
| 1778038162 | 8.33° C | 91% | 1009.4 hPa | - | - | - | - |
| 1778037257 | 8.33° C | 90% | 1009.3 hPa | - | - | - | - |
| 1778036356 | 8.33° C | 90% | 1009.4 hPa | - | - | - | - |
| 1778035446 | 8.33° C | 90% | 1009.7 hPa | - | - | - | - |
| 1778034540 | 8.89° C | 90% | 1009.9 hPa | - | - | - | - |
| 1778033634 | 8.89° C | 90% | 1009.9 hPa | - | - | - | - |
| 1778032729 | 8.89° C | 90% | 1010 hPa | - | - | - | - |
| 1778031824 | 8.89° C | 90% | 1010.1 hPa | - | - | - | - |
| 1778030919 | 8.89° C | 90% | 1010.1 hPa | - | - | - | - |
| 1778029108 | 8.89° C | 90% | 1010.3 hPa | - | - | - | - |
| 1778026392 | 8.89° C | 90% | 1010.6 hPa | - | - | - | - |
| 1778025486 | 8.89° C | 90% | 1010.4 hPa | - | - | - | - |
| 1778023675 | 10° C | 90% | 1010.8 hPa | - | - | - | - |
| 1778022770 | 9.44° C | 89% | 1010.9 hPa | - | - | - | - |
| 1778020054 | 9.44° C | 90% | 1011 hPa | - | - | - | - |
| 1778015527 | 10.56° C | 89% | 1011.2 hPa | - | - | - | - |
| 1778011905 | 12.22° C | 89% | 1011.1 hPa | - | - | - | - |
* Rain since midnight (hover to see other rain measurements)
** Current wind speed in m/s (hover to see current wind gust speed)